Location: Chandolas
(44.4033°N, 4.2533°E)
Time: 00:12:11
(UTC+00:00)

Cosmos 1898 Rocket - Pass Details

Date: 15 November 2019
Orbit: 753 x 785 km, 74.0° (Epoch: 10 December)

Event Time Altitude Azimuth Distance (km) Brightness Sun altitude
Rises 04:48:21 0° 205° (SSW) 3,207 6.5 -19.6°
Reaches altitude 10° 04:50:43 10° 208° (SSW) 2,290 5.8 -19.2°
Maximum altitude 04:55:54 72° 292° (WNW) 811 3.4 -18.3°
Drops below altitude 10° 05:01:11 10° 17° (NNE) 2,328 6.1 -17.4°
Sets 05:03:36 0° 20° (NNE) 3,264 6.9 -16.9°
